Location: N�rnberg
(49.4471°N, 11.0632°E)
Time: 21:59:01
(UTC+02:00)

VELOX 1 - Pass Details

Date: 28 April 2026
Orbit: 569 x 580 km, 98.3° (Epoch: 13 May)

Event Time Altitude Azimuth Distance (km) Brightness Sun altitude
Rises 23:43:15 0° 26° (NNE) 2,786 ? -23.2°
Reaches altitude 10° 23:45:51 10° 43° (NE) 1,883 ? -23.3°
Enters shadow 23:47:44 18° 68° (ENE) 1,417 ? -23.4°
